Regional Weather Roundup
Issued by NWS Burlington, VT

Home | Current Version | Previous Version | Text Only | Print | Product List | Glossary On
Versions: 1 2 3 4 5 6 7 8 9 10 11 12 13 14 15 16 17 18 19 20 21 22 23 24 25 26 27 28 29 30 31 32 33 34 35 36 37 38 39 40 41 42 43 44 45 46 47 48 49 50
000
ASUS41 KBTV 231210
RWRBTV
VERMONT REGIONAL WEATHER ROUNDUP
NATIONAL WEATHER SERVICE BURLINGTON VT
800 AM EDT SAT JUL 23 2016

NOTE: "FAIR" INDICATES FEW OR NO CLOUDS BELOW 12,000 FEET WITH NO
SIGNIFICANT WEATHER AND/OR OBSTRUCTIONS TO VISIBILITY.

* THESE REPORTS ARE NOT UNDER NWS QUALITY CONTROL AND/OR DO NOT
  REPORT WEATHER SUCH AS PRECIPITATION AND FOG.

VTZ001>019-231300-
_____VERMONT_____


CITY           SKY/WX    TMP DP  RH WIND       PRES   REMARKS
BURLINGTON     PTSUNNY   69  65  86 NE6       29.80R
6HR MIN TEMP:  67; 6HR MAX TEMP:  69; 6HR PCP:  0.01;

MONTPELIER     FAIR      67  64  90 CALM      29.85R
6HR MIN TEMP:  60; 6HR MAX TEMP:  67;

MORRISVILLE    FOG       65  63  93 N3        29.83R VSB 3/4
6HR MIN TEMP:  63; 6HR MAX TEMP:  65;

ST. JOHNSBURY*   N/A     65  62  90 MISG      29.79R
6HR MIN TEMP:  63; 6HR MAX TEMP:  66;

LYNDONVILLE*   FOG       64  63  97 CALM      29.84R VSB<1/4
MIDDLEBURY*    FAIR      70  64  79 CALM      29.81R
6HR MIN TEMP:  64; 6HR MAX TEMP:  72;

RUTLAND*       FAIR      69  63  81 CALM      29.83R
6HR MIN TEMP:  64; 6HR MAX TEMP:  70;

SPRINGFIELD    FAIR      70  62  76 CALM      29.81
6HR MIN TEMP:  62; 6HR MAX TEMP:  73;

HIGHGATE*      FAIR      69  66  91 CALM      29.78F
6HR MIN TEMP:  65; 6HR MAX TEMP:  70;

NEWPORT*       FAIR      67  64  92 NE3       29.82R
6HR MIN TEMP:  61; 6HR MAX TEMP:  67;

BENNINGTON     FAIR      74  64  71 CALM      29.84
6HR MIN TEMP:  62; 6HR MAX TEMP:  74;


_____LAKE CHAMPLAIN_____


CITY           SKY/WX    TMP DP  RH WIND       PRES   REMARKS
BURTON ISLAND*   N/A     72  64  78 S7          N/A
COLCHESTER RF*   N/A     72  66  83 S7          N/A
DIAMOND ISL*     N/A     72  64  78 E1          N/A

$$

NYZ007-026>031-035-052-083-087-231300-
_____NORTHERN NEW YORK_____


CITY           SKY/WX    TMP DP  RH WIND       PRES   REMARKS
PLATTSBURGH    CLOUDY    69  64  84 S5        29.78R
6HR MIN TEMP:  66; 6HR MAX TEMP:  69; 6HR PCP:  0.06;

SARANAC LAKE   SUNNY     67  61  81 W8        29.85S
6HR MIN TEMP:  57; 6HR MAX TEMP:  67;

MASSENA        SUNNY     71  64  78 W8        29.80F
6HR MIN TEMP:  65; 6HR MAX TEMP:  71;

OGDENSBURG*    SUNNY     73  64  73 NW8       29.81S
POTSDAM*       SUNNY     72  66  83 W8        29.82S
WATERTOWN      SUNNY     74  63  68 SW5       29.84F
6HR MIN TEMP:  65; 6HR MAX TEMP:  74;

FT DRUM        SUNNY     73  64  71 W8        29.84F
6HR MIN TEMP:  66; 6HR MAX TEMP:  73;

ALBANY         MOSUNNY   76  61  59 W16       29.82S
6HR MIN TEMP:  72; 6HR MAX TEMP:  77;

GLENS FALLS    SUNNY     76  65  68 CALM      29.80S
6HR MIN TEMP:  62; 6HR MAX TEMP:  76;


$$
NHZ002-005-011-231300-
_____NEW HAMPSHIRE_____


CITY           SKY/WX    TMP DP  RH WIND       PRES   REMARKS
LEBANON        SUNNY     69  63  81 CALM      29.79
6HR MIN TEMP:  62; 6HR MAX TEMP:  73;

KEENE          MOSUNNY   73  66  78 MISG        N/A
6HR MIN TEMP:  61; 6HR MAX TEMP:  73;

MT WASHINGTON  FOG       52  52 100 NW41G52     N/A  VSB 0
6HR MIN TEMP:  47; 6HR MAX TEMP:  53; 6HR PCP:  0.05;

PLYMOUTH       FAIR      67  63  84 CALM      29.79R
6HR MIN TEMP:  62; 6HR MAX TEMP:  70;

WHITEFIELD     CLOUDY    68  63  84 CALM      29.82R
6HR MIN TEMP:  60; 6HR MAX TEMP:  66; 6HR PCP: TRACE;


$$

_____REGIONAL QUEBEC LOCATIONS_____


CITY           SKY/WX    TMP DP  RH WIND       PRES   REMARKS
MONTREAL       MOSUNNY   72  64  78 SW10      29.76S
QUEBEC CITY    PTSUNNY   68  64  88 SW6       29.72R
SHERBROOKE     MOSUNNY   68  64  88 W6        29.78S

_____REGIONAL ONTARIO LOCATIONS_____


CITY           SKY/WX    TMP DP  RH WIND       PRES   REMARKS
OTTAWA         MOSUNNY   70  64  83 W15       29.80S

______KEY______
VSB  - VISIBILITY IN MILES
WCI  - WIND CHILL INDEX
HX   - HEAT INDEX
$$
NNNN



USA.gov is the U.S. government's official web portal to all federal, state and local government web resources and services.